Location: Peterborough
(44.3091°N, 78.3197°W)
Time: 17:59:09
(UTC-04:00)

Explorer 7 - Pass Details

Date: 24 March 2023
Orbit: 477 x 653 km, 50.3° (Epoch: 04 June)

Event Time Altitude Azimuth Distance (km) Brightness Sun altitude
Rises 00:47:07 0° 294° (WNW) 2,660 - -43.8°
Reaches altitude 10° 00:49:30 10° 286° (WNW) 1,738 - -43.9°
Maximum altitude 00:53:06 35° 219° (SW) 812 - -44.0°
Drops below altitude 10° 00:56:33 10° 152° (SSE) 1,662 - -44.1°
Sets 00:58:47 0° 143° (SE) 2,524 - -44.1°
